{"data":{"norad_id":65484,"intl_designator":"2025-195AC","name":"STARLINK-35089","alt_names":[],"object_type":"PAYLOAD","status":"ACTIVE","operator":null,"country":"US","launch_date":"2025-09-03","launch_site_code":"AFETR","launch_vehicle":null,"mission":null,"orbit_class":"UNKNOWN","rcs_meters":null,"size_class":null,"mass_kg":null,"dimensions":null,"purposes":["comms"],"wikipedia_slug":null,"has_3d_model":false,"image_url":null,"decayed_at":null,"tle_current":{"epoch":"2026-09-20T21:06:37.770048Z","epoch_age_seconds":79127,"freshness":"FRESH","line1":"1 65484U 25195AC  26263.87960382  .00022930  00000+0  68756-3 0  9991","line2":"2 65484  53.1603  67.5817 0002021  60.4519 299.6685 15.34406334 59913","mean_motion":15.34406334,"eccentricity":0.0002021,"inclination_deg":53.1603,"raan_deg":67.5817,"arg_perigee_deg":60.4519,"mean_anomaly_deg":299.6685,"bstar":0.00068756,"rev_number":5991,"period_min":93.847370679584,"perigee_km":461.30188428121,"apogee_km":464.06694429686,"semimajor_km":6840.821414289,"source":"CELESTRAK","updated_at":"2026-09-21T09:00:35.640473Z"}}}